Zurück zum Katalog

SL-8 R/B

AktivLEO
NORAD 10677·ROCKET BODY·🇷🇺 Russia

Gestartet Feb 17, 1978 von Plesetsk Cosmodrome

Loading…

Nächste Überflüge (nächste 24 Stunden)

TLE

AktuellSource: Space-Track

Epoche: Sep 14, 2026, 03:44 UTC

1 10677U 78019B   26257.15592474  .00000175  00000-0  61787-4 0  9991
2 10677  74.0390 178.8262 0014116 146.4215 213.7839 14.41784340548316

Verfolge SL-8 R/B in Echtzeit mit AllMySat

Download on the App Store